Orbital Elements at Epoch 2459200.5 (2020-Dec-17.0) TDB
Reference: JPL 37 (heliocentric ecliptic J2000)
Element | Value | Uncertainty (1-sigma) | Units |
e | .07620636769107519 | 1.8502e-08 | |
a | 2.65561507253797 | 9.9891e-09 | au |
q | 2.453240293874181 | 4.9125e-08 | au |
i | 5.325640370657492 | 7.5428e-07 | deg |
node | 331.7011758616396 | 8.6492e-06 | deg |
peri | 266.64780022 | 1.7077e-05 | deg |
M | 170.7706512418892 | 1.3064e-05 | deg |
tp | 2458450.680297136824 (2018-Nov-28.18029714) | 5.5813e-05 | TDB |
period | 1580.687846932152 4.33 | 8.9186e-06 2.442e-08 | d yr |
n | .2277489516343781 | 1.285e-09 | deg/d |
Q | 2.85798985120176 | 1.075e-08 | au |
|
| | Orbit Determination Parameters
Additional Information
|